Regional Weather Roundup
Issued by NWS

Home | Current Version | Previous Version | Text Only | Print | Product List | Glossary On
Versions: 1 2 3 4 5 6 7 8 9 10 11 12 13 14 15 16 17 18 19 20 21 22 23 24 25 26 27 28 29 30 31 32 33 34 35 36 37 38 39 40 41 42 43 44 45 46 47 48 49 50
000
ASUS43 KDTX 302210
RWRMI
MICHIGAN HOURLY REGIONAL WEATHER ROUNDUP
NATIONAL WEATHER SERVICE DETROIT/PONTIAC MI
500 PM EST FRI JAN 30 2015

NOTE: "FAIR" INDICATES FEW OR NO CLOUDS BELOW 12,000 FEET WITH NO
SIGNIFICANT WEATHER AND/OR OBSTRUCTION TO VISIBILITY.

MIZ047>049-052>055-059>063-066>070-074>076-081>083-302300-
SOUTHEAST LOWER MICHIGAN

CITY           SKY/WX    TMP DP  RH WIND       PRES   REMARKS
ADRIAN         PTCLDY    22   7  52 N8        30.44S
ALMA           CLEAR     21   8  56 W5        30.41F
ANN ARBOR      CLEAR     20   5  52 NW9       30.43S
BAD AXE        CLEAR     13   2  61 W3        30.42S
DETROIT CITY   CLEAR     21   1  41 NW7       30.44S
DETROIT        PTCLDY    21   3  45 NW7       30.44S
FLINT          CLEAR     19   4  51 W9        30.42F
GROSSE ILE     CLEAR     19   1  45 NW7       30.43S
HILLSDALE      PTCLDY    22   9  57 CALM      30.39S
HOWELL         PTCLDY    18   5  56 NW5       30.41S

CITY           SKY/WX    TMP DP  RH WIND       PRES   REMARKS
JACKSON        PTCLDY    21   8  57 NW8       30.41S
LAMBERTVILLE   CLEAR     25   7  46 CALM      30.44S
LANSING        CLEAR     20   8  60 W7        30.42F
LAPEER         NOT AVBL
MASON          MOCLDY    20   8  58 W6        30.41F
MONROE         CLEAR     21   7  53 NW7       30.43S
MT. CLEMENS    PTCLDY    15   1  53 N8        30.42S
PONTIAC        PTCLDY    17   2  51 NW10      30.40S
PORT HOPE        N/A     15   2  56 NW6       30.41S
PORT HURON     CLEAR     12   0  57 NW5       30.44S
TRI CITIES     CLEAR     21   4  47 W7        30.42S
YPSILANTI      CLEAR     23   4  44 NW7       30.44S
$$
MIZ043>046-050>051-056>058-064>065-071>073-077>080-302300-
SOUTHWEST LOWER MICHIGAN

CITY           SKY/WX    TMP DP  RH WIND       PRES   REMARKS
BATTLE CREEK   CLEAR     22   9  57 NW5       30.42S
BENTON HARBOR  CLOUDY    23  13  65 NW6       30.45F
BIG RAPIDS     CLEAR     21   9  59 W7        30.38S
COLDWATER      CLEAR     23   9  54 CALM      30.41F
HOLLAND        CLOUDY    24  13  62 N5        30.44F
GRAND RAPIDS   PTCLDY    22  10  60 W9        30.42F
KALAMAZOO      PTCLDY    23  10  57 NW9       30.42F
MARSHALL       CLEAR     22   8  55 W8        30.41S
MUSKEGON       FLURRIES  21  10  62 NW7       30.44F
$$
MIZ016>042-302300-
NORTHERN LOWER MICHIGAN

CITY           SKY/WX    TMP DP  RH WIND       PRES   REMARKS
ALPENA         CLEAR     14   1  56 W5        30.40S
BEAVER ISLAND  CLOUDY    17   8  68 CALM      30.39F
CADILLAC       CLOUDY    17   7  66 W8        30.34F
CHARLEVOIX     CLOUDY    17  10  76 SW6       30.42F
FRANKFORT      CLOUDY    19  11  70 W3        30.41F
GAYLORD        CLOUDY    13   4  67 W5        30.33F
GRAYLING       CLOUDY    16   5  63 NW6       30.37F
HARBOR SPRINGS CLOUDY    13   6  72 CALM      30.39F
HOUGHTON LAKE  CLOUDY    16   4  59 W6        30.37S
MANISTEE       MOCLDY    19   5  53 W7        30.42F
OSCODA         CLEAR     15   0  51 NW6       30.40S
PELLSTON       CLOUDY    16   5  62 W5        30.39F
TRAVERSE CITY  FLURRIES  18   8  65 W10       30.40F
$$
MIZ007>008-015-302300-
EASTERN UPPER MICHIGAN

CITY           SKY/WX    TMP DP  RH WIND       PRES   REMARKS
KINROSS        CLOUDY    12   3  67 W5        30.36F
MACKINAC ISLAN CLOUDY    12   4  70 SW5       30.38F
NEWBERRY       CLOUDY    10   6  85 S7        30.35F
S. S. MARIE    CLOUDY    10   0  63 W5        30.37F
$$
MIZ004>006-011>014-085-302300-
CENTRAL UPPER MICHIGAN

CITY           SKY/WX    TMP DP  RH WIND       PRES   REMARKS
MANISTIQUE     MOCLDY    16   6  65 W5        30.38F
ESCANABA       PTCLDY    16   5  62 S7        30.40F
MENOMINEE      CLOUDY    18   7  62 S6        30.39F
SAWYER-GWINN   CLOUDY    16   3  57 SW8       30.33F
$$
MIZ001>003-009>011-084-302300-
WESTERN UPPER MICHIGAN

CITY           SKY/WX    TMP DP  RH WIND       PRES   REMARKS
IRON MOUNTAIN  CLOUDY    19   2  47 SW5       30.32F
HOUGHTON       LGT SNOW  15   9  76 W13       30.29F
COPPER HARBOR    N/A     15   5  64 SW3       30.33F
IRONWOOD       CLOUDY    18   5  57 S9        30.27F
$$

ABBREVIATIONS USED IN REMARKS
   TC - TEMPERATURE IN CELSIUS
  WCI - WIND CHILL INDEX
   HX - HEAT INDEX
  VSB - VISIBILITY



USA.gov is the U.S. government's official web portal to all federal, state and local government web resources and services.